Regional Weather Roundup
Issued by NWS Little Rock, AR

Home | Current Version | Previous Version | Text Only | Print | Product List | Glossary On
Versions: 1 2 3 4 5 6 7 8 9 10 11 12 13 14 15 16 17 18 19 20 21 22 23 24 25 26 27 28 29 30 31 32 33 34 35 36 37 38 39 40 41 42 43 44 45 46 47 48 49 50
000
ASUS44 KLZK 301905
RWRLZK

WEATHER ROUNDUP FOR ARKANSAS
NATIONAL WEATHER SERVICE LITTLE ROCK AR
100 PM CST FRI JAN 30 2015

NOTE: "FAIR" INDICATES FEW OR NO CLOUDS BELOW 12,000 FEET WITH NO
SIGNIFICANT WEATHER AND/OR OBSTRUCTIONS TO VISIBILITY.

ARZ001-003-010-029-302000-
NORTHWEST ARKANSAS

CITY           SKY/WX    TMP DP  RH WIND       PRES   REMARKS
FAYETTEVILLE   PTSUNNY   42  23  46 CALM      30.47F
FORT SMITH     PTSUNNY   45  26  47 E7        30.48F
HARRISON       MOSUNNY   41  22  46 S6        30.47F
BENTONVILLE    MOSUNNY   43  21  42 CALM      30.48F
ROGERS         MOSUNNY   42  19  39 CALM      30.47F
SILOAM SPGS    PTSUNNY  N/A N/A N/A SE3       30.48F
HIGHFILL       MOSUNNY   44  22  41 E3        30.47F
SPRINGDALE     SUNNY     41  23  48 CALM      30.49F
$$

ARZ004-005-016-302000-
NORTH CENTRAL ARKANSAS

CITY           SKY/WX    TMP DP  RH WIND       PRES   REMARKS
BATESVILLE     MOSUNNY   45  23  42 CALM      30.49F
FLIPPIN        SUNNY     43  18  36 CALM      30.48F
MTN HOME       SUNNY     44  18  35 VRB5      30.47F
$$

ARZ040-041-302000-
WEST CENTRAL ARKANSAS

CITY           SKY/WX    TMP DP  RH WIND       PRES   REMARKS
MENA           MOSUNNY   52  23  32 E8        30.44F
MOUNT IDA      MOSUNNY   50  25  37 VRB7      30.43F
$$

ARZ009-017-025-026-028-302000-
NORTHEAST ARKANSAS

CITY           SKY/WX    TMP DP  RH WIND       PRES   REMARKS
CORNING        FAIR      41  25  52 E9        30.51F
JONESBORO      SUNNY     42  28  57 NE9       30.48F
NEWPORT        SUNNY     43  29  58 NE10      30.52F
WALNUT RIDGE   SUNNY     43  25  49 NE8       30.49F
BLYTHEVILLE    SUNNY     46  27  47 NE12      30.48F
$$

ARZ022-023-033-042-044-302000-
CENTRAL ARKANSAS

CITY           SKY/WX    TMP DP  RH WIND       PRES   REMARKS
LITTLE ROCK    PTSUNNY   49  25  39 E3        30.50F
N LITTLE ROCK  PTSUNNY   46  29  52 N5        30.50F
JACKSONVILLE   PTSUNNY   47  26  43 NE8       30.49F
SEARCY         PTSUNNY   46  26  45 CALM      30.52F
HOT SPRINGS    MOSUNNY   49  25  39 CALM      30.47F
RUSSELLVILLE   CLOUDY    45  26  47 CALM      30.49F
CLINTON        FAIR      46  23  39 S3        30.50F
$$

ARZ036-302000-
EAST ARKANSAS

CITY           SKY/WX    TMP DP  RH WIND       PRES   REMARKS
WEST MEMPHIS   SUNNY     47  26  44 VRB3      30.46F
$$

ARZ050-053-066-070-073-302000-
SOUTHWEST ARKANSAS

CITY           SKY/WX    TMP DP  RH WIND       PRES   REMARKS
ARKADELPHIA    FAIR      49  31  50 VRB3      30.49F
CAMDEN         MOSUNNY   54  27  35 MISG      30.47F
TEXARKANA      SUNNY     51  30  44 N5        30.46F
EL DORADO      MOSUNNY   51  29  42 N7        30.44F
DE QUEEN       SUNNY     52  29  41 VRB3      30.45F
$$

ARZ056-057-069-302000-
SOUTHEAST ARKANSAS

CITY           SKY/WX    TMP DP  RH WIND       PRES   REMARKS
PINE BLUFF     SUNNY     47  29  49 NE8       30.48F
STUTTGART      SUNNY     46  27  46 NE7       30.49F
MONTICELLO     SUNNY     49  29  46 NE10      30.45F

$$





USA.gov is the U.S. government's official web portal to all federal, state and local government web resources and services.